owner,sensor,date,latitude,longitude,vertical_datum,mass_concentration_of_oxygen_in_sea_water,qcFlag 
NERRS,ioos:station:NOAA.NERRS:wkbfrwq:1,2017-09-01T00:45:00Z,30.4162,-87.8228,2.35,6.1,1111122 
NERRS,ioos:station:NOAA.NERRS:wkbfrwq:1,2017-09-01T01:45:00Z,30.4162,-87.8228,2.36,6.2,1111122 
NERRS,ioos:station:NOAA.NERRS:wkbfrwq:1,2017-09-01T02:45:00Z,30.4162,-87.8228,2.35,6.1,1111122 
NERRS,ioos:station:NOAA.NERRS:wkbfrwq:1,2017-09-01T03:45:00Z,30.4162,-87.8228,2.39,6.1,1111122 
NERRS,ioos:station:NOAA.NERRS:wkbfrwq:1,2017-09-01T04:45:00Z,30.4162,-87.8228,2.39,6.1,1111122 
NERRS,ioos:station:NOAA.NERRS:wkbfrwq:1,2017-09-01T05:45:00Z,30.4162,-87.8228,2.4,6.0,1111122 
NERRS,ioos:station:NOAA.NERRS:wkbfrwq:1,2017-09-01T06:45:00Z,30.4162,-87.8228,2.42,6.1,1111122 
NERRS,ioos:station:NOAA.NERRS:wkbfrwq:1,2017-09-01T07:45:00Z,30.4162,-87.8228,2.4,6.1,1111122 
NERRS,ioos:station:NOAA.NERRS:wkbfrwq:1,2017-09-01T08:45:00Z,30.4162,-87.8228,2.42,6.0,1111122 
NERRS,ioos:station:NOAA.NERRS:wkbfrwq:1,2017-09-01T09:45:00Z,30.4162,-87.8228,2.47,5.9,1111122 
NERRS,ioos:station:NOAA.NERRS:wkbfrwq:1,2017-09-01T10:45:00Z,30.4162,-87.8228,2.49,5.8,1111122 
NERRS,ioos:station:NOAA.NERRS:wkbfrwq:1,2017-09-01T11:45:00Z,30.4162,-87.8228,2.51,5.8,1111122 
NERRS,ioos:station:NOAA.NERRS:wkbfrwq:1,2017-09-01T12:45:00Z,30.4162,-87.8228,2.52,5.7,1111122 
NERRS,ioos:station:NOAA.NERRS:wkbfrwq:1,2017-09-01T13:45:00Z,30.4162,-87.8228,2.51,5.9,1111122 
NERRS,ioos:station:NOAA.NERRS:wkbfrwq:1,2017-09-01T14:45:00Z,30.4162,-87.8228,2.49,6.0,1111122 
NERRS,ioos:station:NOAA.NERRS:wkbfrwq:1,2017-09-01T15:45:00Z,30.4162,-87.8228,2.46,6.0,1111122 
NERRS,ioos:station:NOAA.NERRS:wkbfrwq:1,2017-09-01T16:45:00Z,30.4162,-87.8228,2.41,6.0,1111122 
NERRS,ioos:station:NOAA.NERRS:wkbfrwq:1,2017-09-01T17:45:00Z,30.4162,-87.8228,2.36,5.9,1111122 
NERRS,ioos:station:NOAA.NERRS:wkbfrwq:1,2017-09-01T18:45:00Z,30.4162,-87.8228,2.33,5.8,1111122 
NERRS,ioos:station:NOAA.NERRS:wkbfrwq:1,2017-09-01T19:45:00Z,30.4162,-87.8228,2.27,5.8,1111122 
NERRS,ioos:station:NOAA.NERRS:wkbfrwq:1,2017-09-01T20:45:00Z,30.4162,-87.8228,2.19,5.8,1111122 
NERRS,ioos:station:NOAA.NERRS:wkbfrwq:1,2017-09-01T21:45:00Z,30.4162,-87.8228,2.14,5.7,1111122 
NERRS,ioos:station:NOAA.NERRS:wkbfrwq:1,2017-09-01T23:45:00Z,30.4162,-87.8228,2.13,5.6,1111122 
NERRS,ioos:station:NOAA.NERRS:wkbfrwq:1,2017-09-02T00:45:00Z,30.4162,-87.8228,2.11,5.5,1111122 
NERRS,ioos:station:NOAA.NERRS:wkbfrwq:1,2017-09-02T01:45:00Z,30.4162,-87.8228,2.12,5.2,1111122 
NERRS,ioos:station:NOAA.NERRS:wkbfrwq:1,2017-09-02T02:45:00Z,30.4162,-87.8228,2.18,5.5,1111122 
NERRS,ioos:station:NOAA.NERRS:wkbfrwq:1,2017-09-02T03:45:00Z,30.4162,-87.8228,2.25,5.6,1111122 
NERRS,ioos:station:NOAA.NERRS:wkbfrwq:1,2017-09-02T04:45:00Z,30.4162,-87.8228,2.33,5.0,1111122 
NERRS,ioos:station:NOAA.NERRS:wkbfrwq:1,2017-09-02T05:45:00Z,30.4162,-87.8228,2.23,5.4,1111122 
NERRS,ioos:station:NOAA.NERRS:wkbfrwq:1,2017-09-02T06:45:00Z,30.4162,-87.8228,2.24,5.1,1111122 
NERRS,ioos:station:NOAA.NERRS:wkbfrwq:1,2017-09-02T07:45:00Z,30.4162,-87.8228,2.31,5.6,1111122 
NERRS,ioos:station:NOAA.NERRS:wkbfrwq:1,2017-09-02T08:45:00Z,30.4162,-87.8228,2.34,5.0,1111122 
NERRS,ioos:station:NOAA.NERRS:wkbfrwq:1,2017-09-02T09:45:00Z,30.4162,-87.8228,2.35,5.3,1111122 
NERRS,ioos:station:NOAA.NERRS:wkbfrwq:1,2017-09-02T10:45:00Z,30.4162,-87.8228,2.38,5.0,1111122 
NERRS,ioos:station:NOAA.NERRS:wkbfrwq:1,2017-09-02T11:45:00Z,30.4162,-87.8228,2.4,4.9,1111122 
NERRS,ioos:station:NOAA.NERRS:wkbfrwq:1,2017-09-02T12:45:00Z,30.4162,-87.8228,2.4,5.1,1111122 
NERRS,ioos:station:NOAA.NERRS:wkbfrwq:1,2017-09-02T13:45:00Z,30.4162,-87.8228,2.43,5.0,1111122 
NERRS,ioos:station:NOAA.NERRS:wkbfrwq:1,2017-09-02T14:45:00Z,30.4162,-87.8228,2.46,5.1,1111122 
NERRS,ioos:station:NOAA.NERRS:wkbfrwq:1,2017-09-02T15:45:00Z,30.4162,-87.8228,2.45,5.0,1111122 
NERRS,ioos:station:NOAA.NERRS:wkbfrwq:1,2017-09-02T16:45:00Z,30.4162,-87.8228,2.4,5.2,1111122 
NERRS,ioos:station:NOAA.NERRS:wkbfrwq:1,2017-09-02T17:45:00Z,30.4162,-87.8228,2.33,5.0,1111122 
NERRS,ioos:station:NOAA.NERRS:wkbfrwq:1,2017-09-02T18:45:00Z,30.4162,-87.8228,2.28,5.3,1111122 
NERRS,ioos:station:NOAA.NERRS:wkbfrwq:1,2017-09-02T19:45:00Z,30.4162,-87.8228,2.21,5.3,1111122 
NERRS,ioos:station:NOAA.NERRS:wkbfrwq:1,2017-09-02T20:45:00Z,30.4162,-87.8228,2.15,5.3,1111122 
NERRS,ioos:station:NOAA.NERRS:wkbfrwq:1,2017-09-02T21:45:00Z,30.4162,-87.8228,2.11,5.1,1111122 
NERRS,ioos:station:NOAA.NERRS:wkbfrwq:1,2017-09-02T22:45:00Z,30.4162,-87.8228,2.07,5.2,1111122 
NERRS,ioos:station:NOAA.NERRS:wkbfrwq:1,2017-09-02T23:45:00Z,30.4162,-87.8228,2.04,5.1,1111122 
NERRS,ioos:station:NOAA.NERRS:wkbfrwq:1,2017-09-03T00:45:00Z,30.4162,-87.8228,2.03,5.1,1111122 
NERRS,ioos:station:NOAA.NERRS:wkbfrwq:1,2017-09-03T01:45:00Z,30.4162,-87.8228,2.05,4.5,1111122 
NERRS,ioos:station:NOAA.NERRS:wkbfrwq:1,2017-09-03T02:45:00Z,30.4162,-87.8228,2.09,4.7,1111122 
NERRS,ioos:station:NOAA.NERRS:wkbfrwq:1,2017-09-03T03:45:00Z,30.4162,-87.8228,2.14,4.8,1111122 
NERRS,ioos:station:NOAA.NERRS:wkbfrwq:1,2017-09-03T04:45:00Z,30.4162,-87.8228,2.2,4.5,1111122 
NERRS,ioos:station:NOAA.NERRS:wkbfrwq:1,2017-09-03T05:45:00Z,30.4162,-87.8228,2.24,4.5,1111122 
NERRS,ioos:station:NOAA.NERRS:wkbfrwq:1,2017-09-03T06:45:00Z,30.4162,-87.8228,2.25,4.6,1111122 
NERRS,ioos:station:NOAA.NERRS:wkbfrwq:1,2017-09-03T07:45:00Z,30.4162,-87.8228,2.25,4.6,1111122 
NERRS,ioos:station:NOAA.NERRS:wkbfrwq:1,2017-09-03T08:45:00Z,30.4162,-87.8228,2.28,4.6,1111122 
NERRS,ioos:station:NOAA.NERRS:wkbfrwq:1,2017-09-03T09:45:00Z,30.4162,-87.8228,2.32,3.9,1111122 
NERRS,ioos:station:NOAA.NERRS:wkbfrwq:1,2017-09-03T10:45:00Z,30.4162,-87.8228,2.38,4.5,1111122 
NERRS,ioos:station:NOAA.NERRS:wkbfrwq:1,2017-09-03T11:45:00Z,30.4162,-87.8228,2.44,4.8,1111122 
NERRS,ioos:station:NOAA.NERRS:wkbfrwq:1,2017-09-03T12:45:00Z,30.4162,-87.8228,2.48,4.7,1111122 
NERRS,ioos:station:NOAA.NERRS:wkbfrwq:1,2017-09-03T13:45:00Z,30.4162,-87.8228,2.51,4.5,1111122 
NERRS,ioos:station:NOAA.NERRS:wkbfrwq:1,2017-09-03T14:45:00Z,30.4162,-87.8228,2.52,4.3,1111122 
NERRS,ioos:station:NOAA.NERRS:wkbfrwq:1,2017-09-03T15:45:00Z,30.4162,-87.8228,2.51,4.3,1111122 
NERRS,ioos:station:NOAA.NERRS:wkbfrwq:1,2017-09-03T16:45:00Z,30.4162,-87.8228,2.48,4.7,1111122 
NERRS,ioos:station:NOAA.NERRS:wkbfrwq:1,2017-09-03T17:45:00Z,30.4162,-87.8228,2.42,5.1,1111122 
NERRS,ioos:station:NOAA.NERRS:wkbfrwq:1,2017-09-03T18:45:00Z,30.4162,-87.8228,2.35,5.2,1111122 
NERRS,ioos:station:NOAA.NERRS:wkbfrwq:1,2017-09-03T19:45:00Z,30.4162,-87.8228,2.27,5.0,1111122 
NERRS,ioos:station:NOAA.NERRS:wkbfrwq:1,2017-09-03T20:45:00Z,30.4162,-87.8228,2.21,5.0,1111122 
NERRS,ioos:station:NOAA.NERRS:wkbfrwq:1,2017-09-03T21:45:00Z,30.4162,-87.8228,2.14,5.2,1111122 
NERRS,ioos:station:NOAA.NERRS:wkbfrwq:1,2017-09-03T22:45:00Z,30.4162,-87.8228,2.08,5.3,1111122 
NERRS,ioos:station:NOAA.NERRS:wkbfrwq:1,2017-09-03T23:45:00Z,30.4162,-87.8228,2.05,5.4,1111122 
NERRS,ioos:station:NOAA.NERRS:wkbfrwq:1,2017-09-04T00:45:00Z,30.4162,-87.8228,2.05,5.2,1111122 
NERRS,ioos:station:NOAA.NERRS:wkbfrwq:1,2017-09-04T01:45:00Z,30.4162,-87.8228,2.07,4.8,1111122 
NERRS,ioos:station:NOAA.NERRS:wkbfrwq:1,2017-09-04T02:45:00Z,30.4162,-87.8228,2.09,4.6,1111122 
NERRS,ioos:station:NOAA.NERRS:wkbfrwq:1,2017-09-04T03:45:00Z,30.4162,-87.8228,2.12,4.6,1111122 
NERRS,ioos:station:NOAA.NERRS:wkbfrwq:1,2017-09-04T04:45:00Z,30.4162,-87.8228,2.17,4.8,1111122 
NERRS,ioos:station:NOAA.NERRS:wkbfrwq:1,2017-09-04T05:45:00Z,30.4162,-87.8228,2.21,5.1,1111122 
NERRS,ioos:station:NOAA.NERRS:wkbfrwq:1,2017-09-04T06:45:00Z,30.4162,-87.8228,2.24,5.0,1111122 
NERRS,ioos:station:NOAA.NERRS:wkbfrwq:1,2017-09-04T07:45:00Z,30.4162,-87.8228,2.25,4.9,1111122 
NERRS,ioos:station:NOAA.NERRS:wkbfrwq:1,2017-09-04T08:45:00Z,30.4162,-87.8228,2.29,5.3,1111122 
NERRS,ioos:station:NOAA.NERRS:wkbfrwq:1,2017-09-04T09:45:00Z,30.4162,-87.8228,2.34,5.1,1111122 
NERRS,ioos:station:NOAA.NERRS:wkbfrwq:1,2017-09-04T10:45:00Z,30.4162,-87.8228,2.39,5.3,1111122 
NERRS,ioos:station:NOAA.NERRS:wkbfrwq:1,2017-09-04T11:45:00Z,30.4162,-87.8228,2.42,5.0,1111122 
NERRS,ioos:station:NOAA.NERRS:wkbfrwq:1,2017-09-04T12:45:00Z,30.4162,-87.8228,2.47,4.4,1111122 
NERRS,ioos:station:NOAA.NERRS:wkbfrwq:1,2017-09-04T13:45:00Z,30.4162,-87.8228,2.52,4.1,1111122 
NERRS,ioos:station:NOAA.NERRS:wkbfrwq:1,2017-09-04T14:45:00Z,30.4162,-87.8228,2.55,3.6,1111122 
NERRS,ioos:station:NOAA.NERRS:wkbfrwq:1,2017-09-04T15:45:00Z,30.4162,-87.8228,2.54,2.8,1111122 
NERRS,ioos:station:NOAA.NERRS:wkbfrwq:1,2017-09-04T16:45:00Z,30.4162,-87.8228,2.53,3.4,1111122 
NERRS,ioos:station:NOAA.NERRS:wkbfrwq:1,2017-09-04T17:45:00Z,30.4162,-87.8228,2.5,3.2,1111122 
NERRS,ioos:station:NOAA.NERRS:wkbfrwq:1,2017-09-04T18:45:00Z,30.4162,-87.8228,2.44,3.4,1111122 
NERRS,ioos:station:NOAA.NERRS:wkbfrwq:1,2017-09-04T19:45:00Z,30.4162,-87.8228,2.36,4.0,1111122 
NERRS,ioos:station:NOAA.NERRS:wkbfrwq:1,2017-09-04T20:45:00Z,30.4162,-87.8228,2.28,4.4,1111122 
NERRS,ioos:station:NOAA.NERRS:wkbfrwq:1,2017-09-04T21:45:00Z,30.4162,-87.8228,2.21,3.3,1111122 
NERRS,ioos:station:NOAA.NERRS:wkbfrwq:1,2017-09-04T23:45:00Z,30.4162,-87.8228,2.11,4.6,1111122 
NERRS,ioos:station:NOAA.NERRS:wkbfrwq:1,2017-09-05T00:45:00Z,30.4162,-87.8228,2.08,3.8,1111122 
NERRS,ioos:station:NOAA.NERRS:wkbfrwq:1,2017-09-05T01:45:00Z,30.4162,-87.8228,2.07,3.6,1111122 
NERRS,ioos:station:NOAA.NERRS:wkbfrwq:1,2017-09-05T02:45:00Z,30.4162,-87.8228,2.11,4.8,1111122 
NERRS,ioos:station:NOAA.NERRS:wkbfrwq:1,2017-09-05T03:45:00Z,30.4162,-87.8228,2.15,7.0,1111122 
NERRS,ioos:station:NOAA.NERRS:wkbfrwq:1,2017-09-05T04:45:00Z,30.4162,-87.8228,2.19,8.6,1111122 
NERRS,ioos:station:NOAA.NERRS:wkbfrwq:1,2017-09-05T05:45:00Z,30.4162,-87.8228,2.23,8.2,1111122 
NERRS,ioos:station:NOAA.NERRS:wkbfrwq:1,2017-09-05T06:45:00Z,30.4162,-87.8228,2.25,6.9,1111122 
NERRS,ioos:station:NOAA.NERRS:wkbfrwq:1,2017-09-05T07:45:00Z,30.4162,-87.8228,2.29,5.8,1111122 
NERRS,ioos:station:NOAA.NERRS:wkbfrwq:1,2017-09-05T08:45:00Z,30.4162,-87.8228,2.3,6.1,1111122 
NERRS,ioos:station:NOAA.NERRS:wkbfrwq:1,2017-09-05T09:45:00Z,30.4162,-87.8228,2.31,4.6,1111122 
NERRS,ioos:station:NOAA.NERRS:wkbfrwq:1,2017-09-05T10:45:00Z,30.4162,-87.8228,2.33,4.4,1111122 
NERRS,ioos:station:NOAA.NERRS:wkbfrwq:1,2017-09-05T11:45:00Z,30.4162,-87.8228,2.38,5.2,1111122 
NERRS,ioos:station:NOAA.NERRS:wkbfrwq:1,2017-09-05T12:45:00Z,30.4162,-87.8228,2.42,4.3,1111122 
NERRS,ioos:station:NOAA.NERRS:wkbfrwq:1,2017-09-05T13:45:00Z,30.4162,-87.8228,2.46,2.1,1111122 
NERRS,ioos:station:NOAA.NERRS:wkbfrwq:1,2017-09-05T15:45:00Z,30.4162,-87.8228,2.51,2.0,1111122 
NERRS,ioos:station:NOAA.NERRS:wkbfrwq:1,2017-09-05T16:45:00Z,30.4162,-87.8228,2.51,2.0,1111122 
NERRS,ioos:station:NOAA.NERRS:wkbfrwq:1,2017-09-05T17:45:00Z,30.4162,-87.8228,2.52,2.2,1111122 
NERRS,ioos:station:NOAA.NERRS:wkbfrwq:1,2017-09-05T18:45:00Z,30.4162,-87.8228,2.49,1.9,1111122 
NERRS,ioos:station:NOAA.NERRS:wkbfrwq:1,2017-09-05T19:45:00Z,30.4162,-87.8228,2.43,2.0,1111122 
NERRS,ioos:station:NOAA.NERRS:wkbfrwq:1,2017-09-05T20:45:00Z,30.4162,-87.8228,2.35,2.3,1111122 
NERRS,ioos:station:NOAA.NERRS:wkbfrwq:1,2017-09-05T21:45:00Z,30.4162,-87.8228,2.28,3.0,1111122 
NERRS,ioos:station:NOAA.NERRS:wkbfrwq:1,2017-09-05T22:45:00Z,30.4162,-87.8228,2.23,2.2,1111122 
NERRS,ioos:station:NOAA.NERRS:wkbfrwq:1,2017-09-05T23:45:00Z,30.4162,-87.8228,2.19,2.2,1111122 
NERRS,ioos:station:NOAA.NERRS:wkbfrwq:1,2017-09-06T00:45:00Z,30.4162,-87.8228,2.17,1.5,1111122 
NERRS,ioos:station:NOAA.NERRS:wkbfrwq:1,2017-09-07T14:45:00Z,30.4162,-87.8228,2.3,6.0,1111122 
NERRS,ioos:station:NOAA.NERRS:wkbfrwq:1,2017-09-07T15:45:00Z,30.4162,-87.8228,2.36,7.4,1111122 
NERRS,ioos:station:NOAA.NERRS:wkbfrwq:1,2017-09-07T16:45:00Z,30.4162,-87.8228,2.4,8.0,1111122 
NERRS,ioos:station:NOAA.NERRS:wkbfrwq:1,2017-09-07T17:45:00Z,30.4162,-87.8228,2.43,7.8,1111122 
NERRS,ioos:station:NOAA.NERRS:wkbfrwq:1,2017-09-07T18:45:00Z,30.4162,-87.8228,2.46,9.4,1111122 
NERRS,ioos:station:NOAA.NERRS:wkbfrwq:1,2017-09-07T19:45:00Z,30.4162,-87.8228,2.49,9.9,1111122 
NERRS,ioos:station:NOAA.NERRS:wkbfrwq:1,2017-09-07T20:45:00Z,30.4162,-87.8228,2.47,8.0,1111122 
NERRS,ioos:station:NOAA.NERRS:wkbfrwq:1,2017-09-07T21:45:00Z,30.4162,-87.8228,2.42,8.7,1111122 
NERRS,ioos:station:NOAA.NERRS:wkbfrwq:1,2017-09-07T22:45:00Z,30.4162,-87.8228,2.34,8.5,1111122 
NERRS,ioos:station:NOAA.NERRS:wkbfrwq:1,2017-09-07T23:45:00Z,30.4162,-87.8228,2.29,7.6,1111122 
NERRS,ioos:station:NOAA.NERRS:wkbfrwq:1,2017-09-08T00:45:00Z,30.4162,-87.8228,2.26,6.9,1111122 
NERRS,ioos:station:NOAA.NERRS:wkbfrwq:1,2017-09-08T01:45:00Z,30.4162,-87.8228,2.25,3.5,1111122 
NERRS,ioos:station:NOAA.NERRS:wkbfrwq:1,2017-09-08T02:45:00Z,30.4162,-87.8228,0.0,5.7,1111122 
NERRS,ioos:station:NOAA.NERRS:wkbfrwq:1,2017-09-08T03:45:00Z,30.4162,-87.8228,2.25,5.8,1111122 
NERRS,ioos:station:NOAA.NERRS:wkbfrwq:1,2017-09-08T04:45:00Z,30.4162,-87.8228,2.26,5.8,1111122 
NERRS,ioos:station:NOAA.NERRS:wkbfrwq:1,2017-09-08T05:45:00Z,30.4162,-87.8228,2.25,5.5,1111122 
NERRS,ioos:station:NOAA.NERRS:wkbfrwq:1,2017-09-08T06:45:00Z,30.4162,-87.8228,2.26,5.4,1111122 
NERRS,ioos:station:NOAA.NERRS:wkbfrwq:1,2017-09-08T07:45:00Z,30.4162,-87.8228,2.25,5.8,1111122 
NERRS,ioos:station:NOAA.NERRS:wkbfrwq:1,2017-09-08T08:45:00Z,30.4162,-87.8228,2.25,5.3,1111122 
NERRS,ioos:station:NOAA.NERRS:wkbfrwq:1,2017-09-08T09:45:00Z,30.4162,-87.8228,2.23,4.3,1111122 
NERRS,ioos:station:NOAA.NERRS:wkbfrwq:1,2017-09-08T10:45:00Z,30.4162,-87.8228,2.21,3.1,1111122 
NERRS,ioos:station:NOAA.NERRS:wkbfrwq:1,2017-09-08T11:45:00Z,30.4162,-87.8228,2.2,4.3,1111122 
NERRS,ioos:station:NOAA.NERRS:wkbfrwq:1,2017-09-08T12:45:00Z,30.4162,-87.8228,2.19,4.6,1111122 
NERRS,ioos:station:NOAA.NERRS:wkbfrwq:1,2017-09-08T13:45:00Z,30.4162,-87.8228,2.21,4.9,1111122 
NERRS,ioos:station:NOAA.NERRS:wkbfrwq:1,2017-09-08T14:45:00Z,30.4162,-87.8228,2.27,5.5,1111122 
NERRS,ioos:station:NOAA.NERRS:wkbfrwq:1,2017-09-08T15:45:00Z,30.4162,-87.8228,2.33,8.0,1111122 
NERRS,ioos:station:NOAA.NERRS:wkbfrwq:1,2017-09-08T16:45:00Z,30.4162,-87.8228,2.37,7.9,1111122 
NERRS,ioos:station:NOAA.NERRS:wkbfrwq:1,2017-09-08T17:45:00Z,30.4162,-87.8228,2.4,8.3,1111122 
NERRS,ioos:station:NOAA.NERRS:wkbfrwq:1,2017-09-08T18:45:00Z,30.4162,-87.8228,2.42,8.4,1111122 
NERRS,ioos:station:NOAA.NERRS:wkbfrwq:1,2017-09-08T19:45:00Z,30.4162,-87.8228,2.43,8.7,1111122 
NERRS,ioos:station:NOAA.NERRS:wkbfrwq:1,2017-09-08T20:45:00Z,30.4162,-87.8228,2.43,8.8,1111122 
NERRS,ioos:station:NOAA.NERRS:wkbfrwq:1,2017-09-08T21:45:00Z,30.4162,-87.8228,2.4,8.1,1111122 
NERRS,ioos:station:NOAA.NERRS:wkbfrwq:1,2017-09-08T22:45:00Z,30.4162,-87.8228,2.34,8.3,1111122 
NERRS,ioos:station:NOAA.NERRS:wkbfrwq:1,2017-09-08T23:45:00Z,30.4162,-87.8228,2.28,6.7,1111122 
NERRS,ioos:station:NOAA.NERRS:wkbfrwq:1,2017-09-09T00:45:00Z,30.4162,-87.8228,2.26,6.0,1111122 
NERRS,ioos:station:NOAA.NERRS:wkbfrwq:1,2017-09-09T01:45:00Z,30.4162,-87.8228,2.28,6.2,1111122 
NERRS,ioos:station:NOAA.NERRS:wkbfrwq:1,2017-09-09T02:45:00Z,30.4162,-87.8228,2.29,7.0,1111122 
NERRS,ioos:station:NOAA.NERRS:wkbfrwq:1,2017-09-09T03:45:00Z,30.4162,-87.8228,2.25,6.4,1111122 
NERRS,ioos:station:NOAA.NERRS:wkbfrwq:1,2017-09-09T04:45:00Z,30.4162,-87.8228,2.23,6.0,1111122 
NERRS,ioos:station:NOAA.NERRS:wkbfrwq:1,2017-09-09T05:45:00Z,30.4162,-87.8228,2.23,5.7,1111122 
NERRS,ioos:station:NOAA.NERRS:wkbfrwq:1,2017-09-09T06:45:00Z,30.4162,-87.8228,2.24,5.5,1111122 
NERRS,ioos:station:NOAA.NERRS:wkbfrwq:1,2017-09-09T07:45:00Z,30.4162,-87.8228,2.26,5.5,1111122 
NERRS,ioos:station:NOAA.NERRS:wkbfrwq:1,2017-09-09T08:45:00Z,30.4162,-87.8228,2.3,5.8,1111122 
NERRS,ioos:station:NOAA.NERRS:wkbfrwq:1,2017-09-09T09:45:00Z,30.4162,-87.8228,2.3,4.2,1111122 
NERRS,ioos:station:NOAA.NERRS:wkbfrwq:1,2017-09-09T10:45:00Z,30.4162,-87.8228,2.28,5.0,1111122 
NERRS,ioos:station:NOAA.NERRS:wkbfrwq:1,2017-09-09T11:45:00Z,30.4162,-87.8228,2.25,4.3,1111122 
NERRS,ioos:station:NOAA.NERRS:wkbfrwq:1,2017-09-09T12:45:00Z,30.4162,-87.8228,2.22,3.7,1111122 
NERRS,ioos:station:NOAA.NERRS:wkbfrwq:1,2017-09-09T13:45:00Z,30.4162,-87.8228,2.22,3.6,1111122 
NERRS,ioos:station:NOAA.NERRS:wkbfrwq:1,2017-09-09T14:45:00Z,30.4162,-87.8228,2.27,4.9,1111122 
NERRS,ioos:station:NOAA.NERRS:wkbfrwq:1,2017-09-09T15:45:00Z,30.4162,-87.8228,2.33,7.4,1111122 
NERRS,ioos:station:NOAA.NERRS:wkbfrwq:1,2017-09-09T16:45:00Z,30.4162,-87.8228,2.38,8.6,1111122 
NERRS,ioos:station:NOAA.NERRS:wkbfrwq:1,2017-09-09T17:45:00Z,30.4162,-87.8228,2.39,8.6,1111122 
NERRS,ioos:station:NOAA.NERRS:wkbfrwq:1,2017-09-09T18:45:00Z,30.4162,-87.8228,2.42,9.1,1111122 
NERRS,ioos:station:NOAA.NERRS:wkbfrwq:1,2017-09-09T19:45:00Z,30.4162,-87.8228,2.46,10.3,1111122 
NERRS,ioos:station:NOAA.NERRS:wkbfrwq:1,2017-09-09T20:45:00Z,30.4162,-87.8228,2.47,10.5,1111122 
NERRS,ioos:station:NOAA.NERRS:wkbfrwq:1,2017-09-09T21:45:00Z,30.4162,-87.8228,2.44,10.1,1111122 
NERRS,ioos:station:NOAA.NERRS:wkbfrwq:1,2017-09-09T22:45:00Z,30.4162,-87.8228,2.39,9.4,1111122 
NERRS,ioos:station:NOAA.NERRS:wkbfrwq:1,2017-09-09T23:45:00Z,30.4162,-87.8228,2.36,9.0,1111122 
NERRS,ioos:station:NOAA.NERRS:wkbfrwq:1,2017-09-10T00:45:00Z,30.4162,-87.8228,2.34,7.5,1111122 
NERRS,ioos:station:NOAA.NERRS:wkbfrwq:1,2017-09-10T01:45:00Z,30.4162,-87.8228,2.32,7.8,1111122 
NERRS,ioos:station:NOAA.NERRS:wkbfrwq:1,2017-09-10T02:45:00Z,30.4162,-87.8228,2.31,8.0,1111122 
NERRS,ioos:station:NOAA.NERRS:wkbfrwq:1,2017-09-10T03:45:00Z,30.4162,-87.8228,2.32,9.6,1111122 
NERRS,ioos:station:NOAA.NERRS:wkbfrwq:1,2017-09-10T04:45:00Z,30.4162,-87.8228,2.31,9.5,1111122 
NERRS,ioos:station:NOAA.NERRS:wkbfrwq:1,2017-09-10T05:45:00Z,30.4162,-87.8228,2.28,8.1,1111122 
NERRS,ioos:station:NOAA.NERRS:wkbfrwq:1,2017-09-10T06:45:00Z,30.4162,-87.8228,2.3,6.7,1111122 
NERRS,ioos:station:NOAA.NERRS:wkbfrwq:1,2017-09-10T07:45:00Z,30.4162,-87.8228,2.36,7.9,1111122 
NERRS,ioos:station:NOAA.NERRS:wkbfrwq:1,2017-09-10T08:45:00Z,30.4162,-87.8228,2.39,7.6,1111122 
NERRS,ioos:station:NOAA.NERRS:wkbfrwq:1,2017-09-10T09:45:00Z,30.4162,-87.8228,2.38,6.1,1111122 
NERRS,ioos:station:NOAA.NERRS:wkbfrwq:1,2017-09-10T10:45:00Z,30.4162,-87.8228,2.33,6.6,1111122 
NERRS,ioos:station:NOAA.NERRS:wkbfrwq:1,2017-09-10T11:45:00Z,30.4162,-87.8228,2.26,6.7,1111122 
NERRS,ioos:station:NOAA.NERRS:wkbfrwq:1,2017-09-10T12:45:00Z,30.4162,-87.8228,2.21,6.1,1111122 
NERRS,ioos:station:NOAA.NERRS:wkbfrwq:1,2017-09-10T13:45:00Z,30.4162,-87.8228,2.16,4.2,1111122 
NERRS,ioos:station:NOAA.NERRS:wkbfrwq:1,2017-09-10T14:45:00Z,30.4162,-87.8228,2.11,3.1,1111122 
NERRS,ioos:station:NOAA.NERRS:wkbfrwq:1,2017-09-10T15:45:00Z,30.4162,-87.8228,2.06,4.7,1111122 
NERRS,ioos:station:NOAA.NERRS:wkbfrwq:1,2017-09-10T16:45:00Z,30.4162,-87.8228,2.04,2.9,1111122 
NERRS,ioos:station:NOAA.NERRS:wkbfrwq:1,2017-09-10T17:45:00Z,30.4162,-87.8228,2.08,7.1,1111122 
NERRS,ioos:station:NOAA.NERRS:wkbfrwq:1,2017-09-10T18:45:00Z,30.4162,-87.8228,2.12,6.6,1111122 
NERRS,ioos:station:NOAA.NERRS:wkbfrwq:1,2017-09-10T19:45:00Z,30.4162,-87.8228,2.1,6.8,1111122 
NERRS,ioos:station:NOAA.NERRS:wkbfrwq:1,2017-09-10T20:45:00Z,30.4162,-87.8228,2.07,5.8,1111122 
NERRS,ioos:station:NOAA.NERRS:wkbfrwq:1,2017-09-10T21:45:00Z,30.4162,-87.8228,2.04,7.4,1111122 
NERRS,ioos:station:NOAA.NERRS:wkbfrwq:1,2017-09-10T22:45:00Z,30.4162,-87.8228,2.06,7.1,1111122 
NERRS,ioos:station:NOAA.NERRS:wkbfrwq:1,2017-09-10T23:45:00Z,30.4162,-87.8228,2.05,7.1,1111122 
NERRS,ioos:station:NOAA.NERRS:wkbfrwq:1,2017-09-11T00:45:00Z,30.4162,-87.8228,2.05,7.2,1111122 
NERRS,ioos:station:NOAA.NERRS:wkbfrwq:1,2017-09-11T01:45:00Z,30.4162,-87.8228,2.01,7.7,1111122 
NERRS,ioos:station:NOAA.NERRS:wkbfrwq:1,2017-09-11T02:45:00Z,30.4162,-87.8228,2.02,7.7,1111122 
NERRS,ioos:station:NOAA.NERRS:wkbfrwq:1,2017-09-11T03:45:00Z,30.4162,-87.8228,2.04,6.9,1111122 
NERRS,ioos:station:NOAA.NERRS:wkbfrwq:1,2017-09-11T04:45:00Z,30.4162,-87.8228,2.11,6.8,1111122 
NERRS,ioos:station:NOAA.NERRS:wkbfrwq:1,2017-09-11T05:45:00Z,30.4162,-87.8228,2.15,7.7,1111122 
NERRS,ioos:station:NOAA.NERRS:wkbfrwq:1,2017-09-11T06:45:00Z,30.4162,-87.8228,2.16,7.2,1111122 
NERRS,ioos:station:NOAA.NERRS:wkbfrwq:1,2017-09-11T07:45:00Z,30.4162,-87.8228,2.18,7.1,1111122 
NERRS,ioos:station:NOAA.NERRS:wkbfrwq:1,2017-09-11T08:45:00Z,30.4162,-87.8228,2.19,6.2,1111122 
NERRS,ioos:station:NOAA.NERRS:wkbfrwq:1,2017-09-11T09:45:00Z,30.4162,-87.8228,2.17,5.6,1111122 
NERRS,ioos:station:NOAA.NERRS:wkbfrwq:1,2017-09-11T10:45:00Z,30.4162,-87.8228,2.12,5.8,1111122 
NERRS,ioos:station:NOAA.NERRS:wkbfrwq:1,2017-09-11T11:45:00Z,30.4162,-87.8228,2.06,5.4,1111122 
NERRS,ioos:station:NOAA.NERRS:wkbfrwq:1,2017-09-11T12:45:00Z,30.4162,-87.8228,2.0,6.1,1111122 
NERRS,ioos:station:NOAA.NERRS:wkbfrwq:1,2017-09-11T13:45:00Z,30.4162,-87.8228,1.91,6.1,1111122 
NERRS,ioos:station:NOAA.NERRS:wkbfrwq:1,2017-09-11T14:45:00Z,30.4162,-87.8228,1.82,6.3,1111122 
NERRS,ioos:station:NOAA.NERRS:wkbfrwq:1,2017-09-11T15:45:00Z,30.4162,-87.8228,1.76,6.6,1111122 
NERRS,ioos:station:NOAA.NERRS:wkbfrwq:1,2017-09-11T16:45:00Z,30.4162,-87.8228,1.73,6.8,1111122 
NERRS,ioos:station:NOAA.NERRS:wkbfrwq:1,2017-09-11T17:45:00Z,30.4162,-87.8228,1.66,7.8,1111122 
NERRS,ioos:station:NOAA.NERRS:wkbfrwq:1,2017-09-11T18:45:00Z,30.4162,-87.8228,1.64,6.8,1111122 
NERRS,ioos:station:NOAA.NERRS:wkbfrwq:1,2017-09-11T19:45:00Z,30.4162,-87.8228,1.6,6.5,1111122 
NERRS,ioos:station:NOAA.NERRS:wkbfrwq:1,2017-09-11T20:45:00Z,30.4162,-87.8228,1.57,6.4,1111122 
NERRS,ioos:station:NOAA.NERRS:wkbfrwq:1,2017-09-11T21:45:00Z,30.4162,-87.8228,1.6,7.3,1111122 
NERRS,ioos:station:NOAA.NERRS:wkbfrwq:1,2017-09-11T22:45:00Z,30.4162,-87.8228,1.61,8.0,1111122 
NERRS,ioos:station:NOAA.NERRS:wkbfrwq:1,2017-09-11T23:45:00Z,30.4162,-87.8228,1.62,6.2,1111122 
NERRS,ioos:station:NOAA.NERRS:wkbfrwq:1,2017-09-12T00:45:00Z,30.4162,-87.8228,1.69,7.5,1111122 
NERRS,ioos:station:NOAA.NERRS:wkbfrwq:1,2017-09-12T01:45:00Z,30.4162,-87.8228,1.74,7.2,1111122 
NERRS,ioos:station:NOAA.NERRS:wkbfrwq:1,2017-09-12T02:45:00Z,30.4162,-87.8228,1.77,7.5,1111122 
NERRS,ioos:station:NOAA.NERRS:wkbfrwq:1,2017-09-12T03:45:00Z,30.4162,-87.8228,1.79,6.4,1111122 
NERRS,ioos:station:NOAA.NERRS:wkbfrwq:1,2017-09-12T04:45:00Z,30.4162,-87.8228,1.84,7.1,1111122 
NERRS,ioos:station:NOAA.NERRS:wkbfrwq:1,2017-09-12T05:45:00Z,30.4162,-87.8228,1.88,5.7,1111122 
NERRS,ioos:station:NOAA.NERRS:wkbfrwq:1,2017-09-12T06:45:00Z,30.4162,-87.8228,1.96,6.4,1111122 
NERRS,ioos:station:NOAA.NERRS:wkbfrwq:1,2017-09-12T07:45:00Z,30.4162,-87.8228,2.06,6.3,1111122 
NERRS,ioos:station:NOAA.NERRS:wkbfrwq:1,2017-09-12T08:45:00Z,30.4162,-87.8228,2.12,6.0,1111122 
NERRS,ioos:station:NOAA.NERRS:wkbfrwq:1,2017-09-12T09:45:00Z,30.4162,-87.8228,2.08,6.7,1111122 
NERRS,ioos:station:NOAA.NERRS:wkbfrwq:1,2017-09-12T10:45:00Z,30.4162,-87.8228,2.1,5.7,1111122 
NERRS,ioos:station:NOAA.NERRS:wkbfrwq:1,2017-09-12T11:45:00Z,30.4162,-87.8228,2.16,5.7,1111122 
NERRS,ioos:station:NOAA.NERRS:wkbfrwq:1,2017-09-12T12:45:00Z,30.4162,-87.8228,2.18,5.3,1111122 
NERRS,ioos:station:NOAA.NERRS:wkbfrwq:1,2017-09-12T13:45:00Z,30.4162,-87.8228,2.12,6.4,1111122 
NERRS,ioos:station:NOAA.NERRS:wkbfrwq:1,2017-09-12T14:45:00Z,30.4162,-87.8228,2.04,5.3,1111122 
NERRS,ioos:station:NOAA.NERRS:wkbfrwq:1,2017-09-12T15:45:00Z,30.4162,-87.8228,2.0,5.0,1111122 
NERRS,ioos:station:NOAA.NERRS:wkbfrwq:1,2017-09-12T16:45:00Z,30.4162,-87.8228,2.01,5.1,1111122 
NERRS,ioos:station:NOAA.NERRS:wkbfrwq:1,2017-09-12T17:45:00Z,30.4162,-87.8228,2.0,5.1,1111122 
NERRS,ioos:station:NOAA.NERRS:wkbfrwq:1,2017-09-12T18:45:00Z,30.4162,-87.8228,2.0,6.1,1111122 
NERRS,ioos:station:NOAA.NERRS:wkbfrwq:1,2017-09-12T19:45:00Z,30.4162,-87.8228,2.0,8.3,1111122 
NERRS,ioos:station:NOAA.NERRS:wkbfrwq:1,2017-09-12T20:45:00Z,30.4162,-87.8228,1.96,4.6,1111122 
NERRS,ioos:station:NOAA.NERRS:wkbfrwq:1,2017-09-12T21:45:00Z,30.4162,-87.8228,1.99,8.5,1111122 
NERRS,ioos:station:NOAA.NERRS:wkbfrwq:1,2017-09-12T22:45:00Z,30.4162,-87.8228,2.04,7.3,1111122 
NERRS,ioos:station:NOAA.NERRS:wkbfrwq:1,2017-09-12T23:45:00Z,30.4162,-87.8228,2.09,7.5,1111122 
NERRS,ioos:station:NOAA.NERRS:wkbfrwq:1,2017-09-13T00:45:00Z,30.4162,-87.8228,2.12,7.0,1111122 